Regional Weather Roundup
Issued by NWS Newport/Morehead, NC

Current Version | Previous Version | Text Only | Print | Product List | Glossary Off
Versions: 1 2 3 4 5 6 7 8 9 10 11 12 13 14 15 16 17 18 19 20 21 22 23 24 25 26 27 28 29 30 31 32 33 34 35 36 37 38 39 40 41 42 43 44 45 46 47 48 49 50
000 ASUS42 KMHX 172210 RWRMHX WEATHER ROUNDUP FOR EASTERN NORTH CAROLINA NATIONAL WEATHER SERVICE NEWPORT/MOREHEAD CITY NC 500 PM EST WED DEC 17 2014 NOTE: "FAIR" INDICATES FEW OR NO CLOUDS BELOW 12,000 FEET WITH NO SIGNIFICANT WEATHER AND/OR OBSTRUCTIONS TO VISIBILITY NCZ015>017-031-032-045>047-102-103-172300- NORTH COAST CITY SKY/WX TMP DP RH WIND PRES REMARKS EDENTON CLEAR 55 42 62 W5 30.00S ELIZABETH CITY CLEAR 55 39 54 W5 29.99S KITTY HAWK CLEAR 52 42 69 CALM 29.98F MANTEO CLEAR 49 44 82 S6 30.00F $$ NCZ045>047-081-094-103-104-172300- CENTRAL COAST CITY SKY/WX TMP DP RH WIND PRES REMARKS FRISCO CLEAR 50 44 80 W3 30.01S SWANQUARTER N/A 52 N/A N/A S5 29.97S $$ NCZ095-097-098-100-101-172300- SOUTHERN COAST CITY SKY/WX TMP DP RH WIND PRES REMARKS BEAUFORT CLEAR 54 46 74 SW6 30.03S CEDAR ISLAND N/A 55 N/A N/A SW3 30.06S JACKSONVILLE CLEAR 57 40 52 W7 30.03S PINEY ISLAND NOT AVBL WILMINGTON PTCLDY 58 40 51 W7 30.04S $$ NCZ011>013-027>030-043-044-078>080-089-090>093-098-172300- COASTAL PLAIN CITY SKY/WX TMP DP RH WIND PRES REMARKS AHOSKIE CLEAR 51 40 63 CALM 30.02R CLINTON PTCLDY 56 42 58 CALM 30.05R ELIZABETHTOWN CLEAR 56 41 56 W3 30.05R GOLDSBORO PTCLDY 54 45 72 W6 30.02R GREENVILLE PTCLDY 55 37 50 CALM 30.04R HAVELOCK NOT AVBL KENANSVILLE PTCLDY 55 38 53 W3 30.04S KINSTON PTCLDY 55 43 62 CALM 30.04R NEW BERN CLEAR 58 40 51 CALM 30.03S RICHLANDS CLEAR 55 39 54 W3 30.04R ROCKY MOUNT CLEAR 54 37 52 W3 30.03R WASHINGTON CLEAR 53 40 62 CALM 30.02R WHITEVILLE CLEAR 57 40 53 CALM 30.05S $$ AMZ130-135-150-152-154-156-158-170-250-252-270-ANZ085-086-088-633-658-670-172300- MARINE OBSERVATIONS STATION/POSITION TIME TEMP WIND PRES WAVE SWELL AIR SEA DIR/SP/G HT/PER HT/PER (UTC) (F) (DEG/KT/KT) (MB) (FT/S) (FT/S) CHESAPEAKE LIGHT 2100 50 180/ 6/ 6 1015.3 64 E VA BEACH 2200 52 55 230/ 6/ 8 1014.9 3/ 6 3/ 6 DUCK 2200 53 49 230/ 7/ 8 1014.6 2 E DUCK 2200 49 N/A 1/11 10 NE DUCK 2200 52 N/A 2/ 9 OREGON INLET 2200 50 51 160/ 4/ 6 1015.9 13E OREGON INLT 2200 53 N/A 2/ 8 HATTERAS CG 2200 55 53 260/ 8/ 10 1016.6 DIAMOND BUOY 2200 58 1016.8 3/ 7 17 S OCRACOKE NOT AVBL CAPE LOOKOUT 2100 56 230/ 6/ 8 1016.6 BEAUFORT LAB 2200 55 53 240/ 2/ 7 1015.6 30 SE NEW RIVER 2100 57 61 250/ 8/ 10 1017.6 5 SE WRIGHTSVLE 2100 54 56 210/ 10/ 10 1017.2 225 S CAPE HAT 2052 67 73 310/ 6/ 8 1017.6 6/ 7 7/ 7 41 SE CHARLESTON 2200 60 73 220/ 4/ 6 1018.3 2/11 2/11 $$

USA.gov is the U.S. government's official web portal to all federal, state and local government web resources and services.